Vorticity
7 7 7 7 6 6 6 6 6 6 6 5 5 5 5 5 5 5 5 5 5 5 5 5 5 5 5 5 5 5 6 6 6 6 6 6 6 6 6 6 6 6 6 6 6 6 6 6 6 6 6 6 7 7 7 7 7 7 7 7 8 8 8 8 8 8 9 9 9 9 9 9 9 9 9 8 8 8 7 7 6 5 5 4 3 3 3 3 3 3 3 3 3 3 3 3 3 4 4 4 5 5 5
6 6 6 6 6 6 6 6 6 5 5 5 5 5 4 4 4 4 4 4 4 4 4 4 4 4 4 4 4 5 5 5 5 5 5 5 5 5 5 5 5 5 5 5 5 5 5 5 5 5 5 5 5 6 6 6 6 6 6 7 7 7 7 7 7 8 8 8 8 9 9 9 9 9 9 9 9 8 8 8 8 7 7 6 5 5 4 4 4 3 3 3 3 3 3 3 3 3 3 3 4 4 5
6 6 6 6 6 5 5 5 5 5 5 5 4 4 4 4 4 4 4 3 3 3 3 3 4 4 4 4 4 4 4 4 4 4 4 4 5 5 5 5 5 5 5 5 4 4 4 4 4 4 4 4 5 5 5 5 5 5 5 5 5 6 6 6 6 6 7 7 7 8 8 8 8 9 9 9 9 9 9 9 8 8 8 7 7 6 6 5 5 4 4 4 4 4 4 4 4 3 3 3 3 4 4
5 5 5 5 5 5 5 5 5 4 4 4 4 4 4 4 3 3 3 3 3 3 3 3 3 3 3 3 3 3 3 4 4 4 4 4 4 4 4 4 4 4 4 4 4 4 4 4 4 4 4 4 4 4 4 4 4 4 4 4 4 4 5 5 5 5 5 6 6 6 6 7 7 7 8 8 8 9 9 9 9 9 8 8 8 8 7 7 6 5 5 5 5 5 5 5 5 5 4 4 4 4 4
5 5 5 5 5 5 4 4 4 4 4 4 4 4 3 3 3 3 3 3 3 3 3 3 3 3 3 3 3 3 3 3 3 3 3 3 3 3 3 3 3 3 3 3 3 3 3 3 3 3 3 3 3 3 3 3 3 3 3 4 4 4 4 4 4 4 4 4 5 5 5 5 6 6 6 7 7 8 8 8 9 9 9 9 9 9 8 8 7 7 6 5 5 5 4 5 5 5 5 5 5 4 4
5 5 5 5 5 4 4 4 4 4 4 4 3 3 3 3 3 3 3 3 3 3 3 3 3 3 3 3 3 3 3 3 3 3 3 3 3 3 3 3 3 3 3 3 3 3 2 3 3 3 3 3 3 3 3 3 3 3 3 3 4 4 4 4 4 4 4 4 4 4 4 5 5 5 5 5 6 6 6 7 7 8 8 9 9 9 9 9 9 8 8 7 6 5 5 4 4 4 4 5 5 5 5
6 5 5 5 5 5 5 4 4 4 4 4 4 4 4 4 3 3 3 3 3 3 3 3 3 3 3 3 3 3 3 3 2 2 2 2 2 2 2 2 2 2 2 2 2 2 2 2 2 2 2 2 2 2 2 2 3 3 3 3 3 3 4 4 4 4 4 4 4 4 4 4 4 5 5 5 5 5 5 6 6 6 7 7 8 8 8 9 9 9 9 9 8 7 6 6 5 4 4 4 4 5 5
6 6 6 5 5 5 5 5 5 5 5 5 5 5 5 5 5 4 4 4 4 4 4 4 4 4 4 4 3 3 3 3 3 3 2 2 2 2 2 2 2 2 2 2 2 2 2 2 2 2 2 2 2 2 2 2 2 2 3 3 3 3 4 4 4 4 4 4 4 4 5 5 5 5 5 5 5 5 5 5 5 5 5 6 6 6 7 7 8 8 9 9 9 9 8 8 7 6 5 4 4 4 4
6 6 6 6 6 6 6 6 6 6 6 6 6 6 6 6 6 6 6 6 6 6 5 5 5 5 5 5 5 5 5 4 4 4 4 3 3 3 3 3 2 2 2 2 2 2 2 2 2 2 2 2 2 2 2 2 2 3 3 3 3 3 3 4 4 4 4 4 4 4 4 5 5 5 5 5 5 5 5 5 5 5 5 5 6 6 6 6 6 7 7 8 8 9 9 9 9 8 7 7 6 5 4
6 6 6 7 7 7 7 7 7 7 7 8 8 8 8 8 8 8 8 8 8 8 8 7 7 7 7 7 7 7 7 7 7 6 6 6 6 5 5 4 4 4 4 3 3 3 3 3 3 3 3 3 3 3 3 3 3 3 3 3 3 3 3 4 4 4 4 4 4 4 4 4 4 4 4 4 4 4 5 5 5 5 5 5 5 5 5 6 6 6 6 6 7 7 8 8 8 9 9 8 8 7 6
6 7 7 7 7 7 7 8 8 8 8 8 8 9 9 9 9 9 9 9 9 9 9 9 9 9 9 9 9 9 9 9 9 9 9 9 8 8 8 7 7 7 6 6 6 5 5 5 5 4 4 4 4 4 4 4 4 4 4 4 4 4 4 4 4 4 4 4 4 4 4 4 4 4 4 4 4 4 4 4 4 4 4 4 5 5 5 5 5 5 5 6 6 6 6 7 7 8 8 8 8 8 8
7 7 7 7 7 7 8 8 8 8 8 8 8 9 9 9 9 9 9 9 9 10 10 10 10 10 10 10 10 10 10 10 10 10 11 11 11 11 11 10 10 10 9 9 9 8 8 7 7 7 6 6 6 6 5 5 5 5 4 4 4 4 4 4 4 4 4 4 4 3 3 3 3 3 3 3 4 4 4 4 4 4 4 4 4 4 4 5 5 5 5 5 5 5 6 6 6 6 7 7 8 8 8
7 7 7 7 7 7 7 7 7 7 7 8 8 8 8 8 8 8 8 9 9 9 9 9 9 9 9 9 9 9 10 10 10 10 10 11 11 11 12 12 12 12 12 11 11 11 10 10 10 9 9 8 8 7 7 7 6 6 6 5 5 5 5 4 4 4 4 4 4 3 3 3 3 3 3 3 3 3 3 4 4 4 4 4 4 4 5 5 5 5 5 5 5 5 5 5 5 5 6 6 6 7 7
6 7 7 7 7 7 7 7 7 7 7 7 7 7 7 7 7 7 7 7 7 7 8 8 8 8 8 8 8 9 9 9 9 9 9 10 10 10 11 11 11 12 12 12 12 12 12 12 11 11 11 10 10 9 9 8 8 7 7 7 6 6 5 5 5 5 4 4 4 4 4 3 3 3 3 3 3 3 3 3 3 3 4 4 4 4 4 4 5 5 5 5 5 5 5 5 5 5 5 5 5 6 6
6 6 6 6 6 6 6 6 6 6 6 6 6 6 6 6 6 6 6 6 6 6 6 7 7 7 7 7 7 8 8 8 8 8 8 8 8 9 9 9 10 10 10 11 11 11 11 12 12 12 12 11 11 11 10 10 9 9 8 8 7 7 7 6 6 5 5 5 4 4 4 4 4 3 3 3 3 3 3 3 3 3 3 3 4 4 4 4 4 4 5 5 5 5 5 5 5 5 5 5 5 5 5
6 6 6 6 6 6 6 6 5 5 5 5 5 5 5 5 5 5 5 5 5 6 6 6 6 6 6 6 7 7 7 7 7 7 7 7 8 8 8 8 8 8 9 9 9 10 10 10 11 11 11 11 11 11 11 11 10 10 10 9 9 8 8 7 7 6 6 6 5 5 5 5 4 4 4 4 4 4 3 3 3 3 3 3 3 3 4 4 4 4 4 4 4 5 5 5 5 5 5 5 5 5 5
6 5 5 5 5 5 5 5 5 5 5 5 5 5 5 5 5 5 5 5 5 5 5 5 5 5 5 5 6 6 6 6 6 7 7 7 7 7 7 7 7 7 7 8 8 8 8 9 9 10 10 10 11 11 11 11 11 11 10 10 10 9 9 8 8 8 7 7 6 6 6 6 5 5 5 5 5 4 4 4 4 4 4 4 4 4 4 4 4 4 4 4 4 4 4 4 5 5 5 5 5 5 5
5 5 5 5 5 5 5 5 5 5 5 5 5 5 5 5 5 5 5 5 5 4 4 4 4 4 5 5 5 5 5 5 6 6 6 6 6 6 6 7 7 7 7 7 7 7 7 8 8 8 9 9 10 10 10 10 11 11 11 10 10 10 10 9 9 8 8 8 7 7 7 6 6 6 6 6 5 5 5 5 5 5 5 4 4 4 4 4 4 4 4 4 4 4 4 4 4 4 5 5 5 5 5
5 5 5 4 4 4 5 5 5 5 5 5 5 5 5 5 5 5 4 4 4 4 4 4 4 4 4 4 4 4 4 5 5 5 5 5 5 6 6 6 6 6 6 6 7 7 7 7 7 7 7 8 8 9 9 10 10 10 10 10 10 10 10 10 10 9 9 8 8 8 7 7 7 7 6 6 6 6 6 6 6 5 5 5 5 5 5 5 5 4 4 4 4 4 4 4 4 4 4 5 5 5 5
4 4 4 4 4 4 4 4 4 4 4 4 4 4 4 4 4 4 4 4 4 4 4 4 4 4 4 4 4 4 4 4 4 4 5 5 5 5 5 5 6 6 6 6 6 6 6 6 6 7 7 7 7 7 8 8 9 9 9 10 10 10 10 10 10 10 9 9 9 8 8 8 7 7 7 7 7 6 6 6 6 6 6 6 6 5 5 5 5 5 5 5 5 4 4 4 4 4 4 4 5 5 5
4 4 4 4 4 4 4 4 4 4 4 4 4 4 4 4 4 4 4 4 4 4 4 4 4 4 4 4 4 4 4 4 4 4 4 4 4 5 5 5 5 6 6 6 6 6 6 6 6 6 6 6 6 7 7 7 8 8 9 9 9 9 10 10 10 10 10 10 9 9 9 8 8 8 7 7 7 7 7 7 6 6 6 6 6 6 6 6 6 6 5 5 5 5 5 5 5 5 5 5 5 5 5
4 4 4 4 3 3 3 3 3 3 3 3 3 3 3 3 3 3 3 3 3 4 4 4 4 4 4 4 4 4 4 4 4 4 4 4 4 4 4 4 5 5 5 5 6 6 6 7 7 7 7 7 7 6 6 7 7 7 8 8 8 9 9 9 10 10 10 10 10 10 9 9 9 8 8 8 7 7 7 7 7 7 7 7 7 6 6 6 6 6 6 6 6 6 5 5 5 5 5 5 5 5 5
4 4 4 3 3 3 3 3 3 3 3 3 3 3 3 3 3 3 3 3 3 3 3 3 4 4 4 4 4 4 4 4 4 4 4 4 4 4 4 4 4 4 4 5 5 5 6 6 6 6 7 7 7 7 7 7 7 7 7 7 8 8 8 9 9 9 10 10 10 10 10 10 9 9 9 8 8 8 8 7 7 7 7 7 7 7 7 7 7 7 7 7 6 6 6 6 6 6 6 6 5 5 5
4 4 4 3 3 3 3 3 3 3 3 3 3 3 3 3 3 3 3 3 3 3 3 3 3 3 4 4 4 4 4 4 4 4 4 4 4 4 4 4 4 4 4 4 4 4 4 5 5 5 6 6 7 7 7 7 7 7 7 7 8 8 8 8 9 9 9 9 10 10 10 10 10 10 9 9 9 8 8 8 8 7 7 7 7 7 7 7 7 7 7 7 7 7 7 7 7 7 6 6 6 6 6
4 3 3 3 3 3 3 3 3 3 3 3 3 2 2 2 2 2 2 3 3 3 3 3 3 3 3 3 4 4 4 4 4 4 4 4 4 4 4 4 4 4 4 4 4 4 4 4 4 4 5 5 5 6 6 6 6 7 7 7 8 8 8 8 8 8 9 9 9 10 10 10 10 10 10 10 9 9 9 8 8 8 8 8 8 7 8 8 8 8 8 8 8 8 8 8 7 7 7 7 7 7 7
3 3 3 3 3 3 3 3 3 3 2 2 2 2 2 2 2 2 2 2 2 2 3 3 3 3 3 3 3 3 4 4 4 4 4 4 4 4 4 4 4 4 4 4 4 4 4 4 4 4 4 4 4 5 5 5 6 6 6 7 8 8 8 8 8 8 9 9 9 9 10 10 10 10 10 10 10 9 9 9 8 8 8 8 8 8 8 8 8 8 8 8 8 8 8 8 8 8 8 8 8 7 7
3 4 3 3 3 3 3 3 3 2 2 2 2 2 2 2 2 2 2 2 2 2 2 2 3 3 3 3 3 3 3 3 3 3 4 4 4 4 4 4 4 4 4 4 4 4 4 4 4 4 4 4 4 4 4 4 5 5 5 6 7 7 8 8 9 9 9 9 9 9 10 10 10 10 10 10 10 9 9 9 9 8 8 8 8 8 8 8 8 8 8 8 8 8 8 8 8 8 8 8 8 8 8
4 4 3 3 3 3 3 3 3 3 2 2 2 2 2 2 2 2 2 2 2 2 2 2 2 2 2 2 2 2 3 3 3 3 3 3 3 3 3 3 4 4 4 4 4 4 4 4 4 4 4 4 4 4 4 4 4 4 5 5 6 7 7 8 8 9 9 9 9 9 10 10 10 11 11 10 10 10 9 9 9 9 8 8 8 8 8 7 7 7 7 7 8 8 8 8 8 9 9 9 9 9 9
4 4 3 3 3 3 3 3 3 3 2 2 2 2 2 2 2 2 2 2 2 2 2 2 2 2 2 2 2 2 2 2 2 2 2 2 2 2 2 3 3 3 3 3 3 3 3 3 3 3 3 3 3 3 4 4 4 4 4 5 5 6 7 7 8 8 9 9 9 9 10 10 10 11 11 11 10 10 9 9 9 9 8 8 8 8 8 7 7 7 7 7 7 7 8 8 8 9 9 9 9 9 9
4 3 3 3 3 3 3 3 3 3 3 3 3 3 3 3 2 2 3 3 3 3 3 2 2 2 2 2 2 2 2 2 2 2 2 2 2 2 2 2 2 2 2 2 2 2 3 3 3 3 3 3 3 3 3 3 4 4 4 4 5 6 6 7 7 8 8 9 9 10 10 10 10 10 11 11 11 11 10 9 9 8 8 8 8 8 7 7 7 7 7 7 7 7 7 8 8 8 9 9 9 9 9
3 3 3 3 3 3 3 3 3 3 3 3 3 3 3 3 3 3 3 3 3 3 3 3 3 3 3 3 2 2 2 2 2 2 2 2 2 2 2 2 2 2 2 2 2 2 2 2 2 3 3 3 3 3 3 3 3 3 3 4 4 5 6 6 7 8 8 9 9 10 10 10 10 10 11 11 11 11 11 10 9 8 8 8 8 7 7 7 7 7 7 7 7 7 7 7 8 8 9 9 9 9 9
3 3 3 3 3 3 3 3 3 3 3 3 3 3 3 3 3 3 3 3 3 3 3 3 3 3 3 3 3 3 2 2 2 2 2 2 2 2 2 2 2 2 2 2 2 2 2 2 2 3 3 3 3 3 3 3 3 3 3 3 4 5 5 6 7 8 8 8 9 9 10 10 11 11 11 11 11 11 11 10 10 9 8 8 7 7 7 7 6 6 6 6 7 7 7 8 8 8 9 9 9 10 10
3 3 3 3 3 3 3 3 3 3 3 3 3 3 3 3 3 3 3 3 3 3 3 3 3 3 3 3 3 3 3 3 2 2 2 2 2 2 2 2 2 2 2 2 2 2 2 2 3 3 3 3 3 3 3 3 3 3 3 4 4 4 5 6 7 7 8 8 9 9 10 10 11 11 11 11 11 11 11 11 10 9 8 8 7 7 6 6 6 6 6 6 7 7 8 8 8 8 9 9 9 10 10
3 3 3 3 3 3 3 3 3 3 3 3 3 3 3 3 3 3 3 3 3 3 3 3 3 3 3 3 3 3 3 3 3 2 2 2 2 2 2 2 2 2 2 2 2 2 3 3 3 3 3 3 3 3 3 3 3 3 4 4 4 5 5 6 6 7 8 8 9 9 10 10 11 11 12 12 12 12 12 11 10 10 9 8 7 7 6 6 6 6 6 6 7 7 8 8 9 9 9 9 9 10 10
3 3 3 3 3 3 3 3 3 3 3 3 3 3 3 3 3 3 3 3 3 3 3 3 3 3 3 3 3 3 3 3 3 3 2 2 2 2 2 2 2 2 2 2 3 3 3 3 3 3 3 3 3 3 4 4 4 4 4 4 5 5 6 6 7 7 8 8 8 9 9 10 11 11 11 12 12 12 12 11 11 10 9 8 7 7 6 6 6 6 6 7 7 8 8 9 9 9 9 9 9 9 10
3 3 3 3 3 3 3 3 3 3 3 3 3 3 3 3 3 3 3 3 3 3 3 3 3 3 3 3 3 3 3 3 3 3 3 2 2 2 2 2 3 3 3 3 3 3 3 3 3 3 3 3 4 4 4 4 4 5 5 5 6 6 6 7 7 7 8 8 8 9 9 10 11 11 11 12 12 12 12 12 11 10 9 8 7 7 6 6 6 6 6 7 7 8 9 9 9 9 9 9 9 9 9
2 3 3 3 3 3 3 3 3 3 3 3 3 3 3 3 3 3 3 3 3 3 3 3 3 3 3 3 3 3 3 3 3 3 3 3 3 3 3 3 3 3 3 3 3 3 3 3 3 3 3 4 4 4 5 5 5 5 6 6 6 7 7 8 8 8 8 8 8 9 9 10 11 11 11 12 12 12 13 12 12 11 10 9 8 7 6 6 6 6 6 7 7 8 9 9 10 9 9 9 9 9 9
2 2 2 3 3 3 2 2 2 3 3 3 3 3 3 3 3 3 3 3 3 3 3 3 3 3 3 3 3 3 3 3 3 3 3 3 4 4 4 3 3 3 3 3 3 3 3 3 3 3 3 4 4 5 5 5 6 6 6 7 7 8 8 8 8 9 9 9 9 9 9 10 11 11 12 12 12 12 13 13 12 12 11 9 8 7 6 6 6 6 6 7 8 8 9 10 10 10 9 9 9 9 9
2 2 2 2 2 2 2 2 2 3 3 3 3 3 3 3 3 3 3 3 3 3 3 3 3 3 3 3 3 3 3 3 3 4 4 4 4 4 4 4 4 4 4 3 3 3 3 3 3 3 4 4 5 5 6 6 6 7 7 7 7 8 8 8 9 9 9 9 9 10 10 11 11 12 13 13 13 13 13 13 13 12 11 10 9 8 7 6 6 6 6 7 8 8 9 10 10 10 9 9 9 9 9
3 2 2 2 2 2 2 2 3 3 3 3 3 3 3 3 3 3 3 3 3 3 3 2 3 3 3 3 3 3 4 4 4 4 4 4 4 4 4 4 4 4 4 3 3 3 3 3 3 4 4 5 6 6 6 7 7 7 7 7 8 8 8 8 8 8 8 8 9 10 11 11 12 13 14 14 14 14 13 13 13 12 12 10 9 8 7 7 6 6 6 7 7 8 9 9 10 9 9 9 9 9 9
3 3 2 2 2 2 2 3 3 3 3 3 4 4 3 3 3 3 3 3 2 2 2 2 2 2 3 3 4 4 4 4 5 5 5 5 5 5 5 4 4 4 4 4 4 4 4 4 4 5 5 6 7 7 7 7 8 8 8 8 8 8 8 8 8 8 8 7 8 9 10 11 12 13 14 14 15 15 14 14 14 13 12 11 10 9 8 7 7 7 7 7 7 7 8 9 9 9 9 9 9 9 9
3 3 3 2 2 3 3 3 3 3 4 4 4 4 4 3 3 3 3 2 2 2 2 2 2 3 3 3 4 4 4 5 5 5 5 5 5 5 4 4 4 4 4 4 4 4 5 5 6 6 7 7 8 8 8 8 8 8 8 8 8 8 9 8 8 8 7 7 7 8 9 10 11 12 13 14 14 15 15 15 14 14 13 12 11 10 9 8 8 7 7 7 7 7 7 8 8 8 8 8 8 8 9
3 3 3 3 3 3 3 3 4 4 4 4 4 4 3 3 3 3 3 2 2 2 3 3 3 3 3 4 4 5 5 5 5 5 5 5 5 5 5 5 5 5 5 5 5 6 6 7 7 8 8 8 8 8 9 8 8 8 8 8 9 9 9 9 8 8 8 7 7 8 8 9 10 11 12 12 13 14 14 14 14 14 13 12 11 10 10 9 8 8 8 7 7 6 7 7 8 8 8 8 8 8 8
3 3 3 3 3 4 4 4 4 4 4 4 4 3 3 3 3 3 3 3 3 3 3 3 4 4 4 5 5 5 5 5 5 5 5 5 5 5 6 6 6 6 6 7 7 8 8 8 8 9 9 9 9 9 9 9 9 9 9 9 9 9 9 9 9 8 8 8 8 9 9 10 10 10 11 12 12 13 13 14 13 13 13 12 11 11 10 9 9 8 8 7 6 6 6 7 7 8 7 7 7 7 7
3 4 4 4 4 4 4 4 4 4 4 3 3 3 3 3 3 3 3 3 3 3 4 4 5 5 5 5 5 5 5 5 5 5 6 6 6 6 6 7 7 7 8 8 9 9 9 9 9 9 9 9 9 9 9 9 9 9 9 8 9 9 9 9 9 9 9 9 9 10 10 10 10 11 11 11 12 12 12 12 12 12 12 11 11 10 10 9 9 8 7 6 6 6 6 7 7 7 7 7 7 7 7
4 4 4 4 4 4 4 4 4 3 3 3 3 3 3 3 3 3 4 4 4 4 4 5 5 6 6 6 6 5 6 6 6 6 7 7 7 7 8 8 8 9 9 9 9 10 10 9 9 9 10 10 10 9 9 9 9 9 8 8 8 9 9 9 9 9 9 10 10 11 11 11 11 11 11 11 11 11 11 11 11 11 11 10 10 9 9 9 9 8 7 6 6 5 6 7 7 8 8 8 7 7 7
4 4 4 4 4 4 4 4 3 3 3 3 3 3 3 3 3 4 4 4 5 5 5 5 6 6 6 7 6 6 6 7 7 7 7 8 8 8 9 9 9 10 10 10 10 10 10 10 10 10 10 10 10 10 9 9 9 8 8 8 9 9 9 9 9 9 10 11 11 12 12 12 12 11 11 11 11 11 11 10 10 10 10 9 9 9 9 9 9 8 8 7 6 6 6 7 7 8 8 8 8 7 7
4 4 4 4 4 4 4 3 3 3 2 2 3 3 3 3 4 4 5 5 5 6 6 6 6 6 7 7 7 7 7 7 7 8 8 8 9 9 9 10 10 10 10 10 10 10 10 10 10 10 10 10 10 9 9 9 8 8 8 9 9 9 9 9 9 10 11 12 12 12 12 12 12 12 12 12 12 11 10 10 9 9 9 9 9 9 9 10 9 9 8 7 6 6 6 7 8 8 8 8 8 7 7
4 4 4 4 4 4 3 3 3 2 2 3 3 3 3 4 4 5 5 6 6 6 6 7 7 7 7 7 7 7 7 7 8 8 9 9 9 9 9 9 10 10 10 10 10 10 10 10 10 10 9 9 9 9 9 9 8 8 9 9 9 9 9 9 10 10 11 12 13 13 13 12 12 12 12 12 12 11 10 10 9 9 8 9 9 9 10 10 10 10 9 8 7 7 7 7 8 8 8 8 8 7 7
4 4 4 4 4 3 3 3 3 3 3 3 3 4 4 5 6 6 6 7 7 7 7 7 7 7 7 7 7 7 7 8 8 9 9 9 9 10 11 10 9 10 10 10 10 10 10 10 9 9 9 9 9 9 9 9 8 8 9 9 9 9 9 9 10 11 12 13 13 13 13 12 12 12 13 12 12 11 10 10 9 9 8 8 9 9 10 10 10 10 10 9 8 8 8 8 8 9 8 8 8 8 7
4 4 4 4 3 3 3 3 3 3 4 4 5 5 6 6 7 7 7 7 7 8 7 8 8 8 8 7 7 7 7 8 9 9 9 9 9 10 11 11 11 11 10 10 9 9 9 9 9 8 8 8 8 8 8 8 8 9 9 9 9 9 9 9 10 11 12 13 13 13 13 13 13 13 14 13 12 11 10 10 9 9 9 9 9 9 9 9 9 9 9 9 9 8 9 9 9 9 9 9 8 8 7
4 4 4 4 4 4 3 4 4 4 5 5 6 7 7 7 7 8 8 8 8 8 8 7 7 8 8 8 8 8 8 8 9 9 9 10 10 9 10 11 11 10 10 10 10 9 8 8 8 8 8 8 8 8 8 8 9 9 9 9 9 9 9 9 10 12 13 14 14 14 13 13 14 14 14 13 12 10 10 10 10 9 9 9 9 9 9 9 9 8 8 8 8 8 8 9 10 10 10 9 9 8 8
4 4 4 4 4 4 4 5 5 6 6 6 7 7 8 8 8 8 8 8 8 8 8 7 7 7 8 8 8 8 9 9 9 9 8 9 10 10 9 8 8 9 9 10 10 9 7 8 8 8 7 7 7 8 8 8 8 8 9 9 9 9 9 10 11 12 13 14 14 14 14 14 15 15 15 12 10 9 8 9 9 9 9 9 9 9 8 8 8 8 8 8 8 8 8 9 10 10 10 10 9 8 8
5 5 5 5 5 5 6 6 6 7 7 7 7 8 8 8 8 8 8 7 7 7 7 7 7 7 7 8 8 8 8 9 9 9 8 8 8 9 9 7 7 8 8 8 9 9 7 7 7 8 7 6 7 7 7 8 8 8 8 9 8 8 9 10 11 12 13 14 14 14 15 16 16 16 14 11 8 7 7 8 8 9 9 9 9 9 8 8 9 9 8 8 8 8 8 9 10 10 11 10 9 8 8
5 5 5 6 6 6 7 7 7 7 8 8 8 8 8 8 8 7 7 7 7 6 7 7 7 8 8 8 8 8 8 8 8 8 8 7 7 7 8 8 8 7 7 5 5 6 8 6 6 7 7 6 6 7 7 7 8 8 8 8 8 8 8 9 10 12 13 14 14 15 16 17 17 16 13 9 6 5 5 6 7 8 9 9 9 9 9 9 9 9 8 8 8 8 8 9 10 11 11 11 10 9 8
5 6 6 6 6 7 7 7 8 8 8 8 8 8 8 7 7 6 6 6 6 6 7 7 7 8 8 8 8 8 8 8 8 7 7 8 6 5 6 7 7 7 7 6 5 5 6 6 6 6 6 6 6 7 8 8 8 8 8 8 8 8 7 8 9 12 14 14 15 15 17 17 17 14 11 7 5 4 4 4 5 6 8 9 9 9 9 9 9 9 8 8 7 7 8 9 10 11 11 11 10 9 8
6 6 6 6 7 7 8 8 8 8 8 8 8 7 7 6 6 6 6 6 6 7 7 8 8 8 8 8 8 8 8 8 8 7 7 7 7 6 4 4 5 6 6 6 6 6 5 5 5 6 7 6 6 6 8 9 9 9 9 8 8 7 7 7 8 11 14 15 15 16 17 17 16 13 8 6 5 4 3 3 4 6 8 9 10 10 9 9 9 9 8 7 7 6 7 8 10 11 11 10 9 8 8
6 6 7 7 7 8 8 8 8 8 8 8 7 7 6 6 6 6 6 7 7 8 8 8 8 8 8 7 7 7 8 8 8 8 7 7 7 6 5 4 5 5 4 5 5 5 5 5 5 5 7 8 8 8 9 10 11 11 10 9 8 8 7 6 7 10 15 16 17 17 18 17 14 10 7 6 5 4 4 4 4 6 8 9 9 9 8 8 8 8 8 7 7 7 7 8 9 10 10 9 8 8 8
6 7 7 7 8 8 8 8 8 8 8 8 7 6 6 6 6 6 6 7 7 8 8 8 8 7 7 7 7 7 7 7 8 8 8 7 6 5 6 6 5 4 4 4 4 4 5 5 6 6 7 8 10 11 11 13 13 13 12 10 9 8 7 5 6 11 17 18 19 20 20 17 12 8 6 5 5 5 4 4 5 6 8 9 9 8 7 7 7 7 7 7 7 8 8 9 10 10 9 8 8 8 9
7 7 8 8 8 8 9 8 8 8 7 7 6 6 5 6 6 6 7 7 7 8 8 7 7 6 7 7 7 7 7 8 8 8 8 7 6 5 6 5 5 5 4 5 4 4 5 6 6 7 8 9 10 12 13 14 14 13 12 10 9 8 7 4 6 12 19 21 22 22 21 16 10 6 5 6 6 6 5 5 6 7 8 8 8 7 6 5 5 6 6 6 7 9 10 11 12 11 10 9 9 9 10
8 8 8 8 8 8 8 8 7 7 6 6 5 5 5 6 6 7 7 7 7 7 7 6 6 6 6 7 7 7 7 8 8 8 7 7 7 7 6 5 5 5 5 5 5 5 5 6 7 8 11 11 12 12 13 13 13 12 10 8 8 8 6 4 7 14 22 23 23 22 19 13 8 5 5 6 5 5 5 6 7 8 8 8 7 6 4 4 4 5 5 6 8 9 11 12 13 12 11 10 10 11 12
Height
5864 5864 5863 5863 5863 5863 5863 5863 5863 5863 5862 5862 5862 5862 5862 5862 5862 5862 5862 5862 5861 5861 5861 5861 5861 5861 5860 5860 5860 5860 5860 5860 5860 5860 5860 5860 5859 5859 5859 5859 5859 5859 5859 5858 5858 5858 5858 5858 5858 5858 5858 5858 5858 5858 5858 5858 5858 5858 5858 5859 5859 5859 5859 5859 5859 5859 5859 5859 5860 5860 5860 5860 5860 5860 5860 5860 5860 5860 5860 5860 5860 5860 5860 5860 5861 5861 5861 5862 5862 5862 5862 5863 5863 5863 5863 5863 5864 5864 5865 5865 5866 5866 5867
5863 5863 5863 5863 5862 5862 5862 5862 5862 5862 5862 5861 5861 5861 5861 5861 5861 5861 5861 5861 5861 5860 5860 5860 5860 5860 5860 5859 5859 5859 5859 5859 5859 5859 5859 5859 5858 5858 5858 5858 5858 5858 5858 5858 5857 5857 5857 5857 5857 5857 5857 5857 5857 5857 5857 5857 5857 5857 5857 5857 5857 5857 5857 5858 5858 5858 5858 5858 5858 5858 5858 5858 5858 5858 5858 5858 5858 5858 5858 5858 5858 5858 5858 5858 5858 5858 5858 5859 5859 5859 5860 5860 5860 5861 5861 5861 5862 5862 5862 5863 5863 5864 5864
5862 5862 5862 5862 5861 5861 5861 5861 5861 5861 5861 5860 5860 5860 5860 5860 5860 5860 5860 5860 5860 5860 5859 5859 5859 5859 5859 5859 5858 5858 5858 5858 5858 5858 5858 5858 5858 5858 5857 5857 5857 5857 5857 5856 5856 5856 5856 5856 5856 5855 5855 5855 5855 5855 5855 5855 5855 5855 5855 5855 5855 5855 5856 5856 5856 5856 5856 5856 5856 5856 5856 5856 5856 5856 5856 5856 5856 5857 5857 5857 5857 5857 5857 5857 5857 5857 5857 5857 5857 5857 5857 5858 5858 5858 5858 5859 5859 5859 5860 5860 5861 5861 5862
5861 5861 5861 5860 5860 5860 5860 5860 5860 5860 5860 5859 5859 5859 5859 5859 5859 5859 5859 5859 5859 5858 5858 5858 5858 5858 5858 5858 5858 5857 5857 5857 5857 5857 5857 5857 5857 5856 5856 5856 5856 5856 5856 5855 5855 5855 5855 5854 5854 5854 5854 5854 5854 5854 5854 5854 5854 5854 5854 5854 5854 5854 5854 5854 5854 5854 5854 5854 5854 5854 5854 5854 5854 5854 5854 5854 5854 5854 5854 5854 5854 5855 5855 5855 5855 5855 5855 5855 5855 5855 5855 5855 5855 5856 5856 5856 5857 5857 5857 5858 5858 5858 5859
5860 5860 5860 5859 5859 5859 5859 5859 5859 5859 5859 5858 5858 5858 5858 5858 5858 5858 5858 5858 5858 5858 5857 5857 5857 5857 5857 5857 5857 5856 5856 5856 5856 5856 5856 5855 5855 5855 5855 5855 5855 5855 5854 5854 5854 5854 5853 5853 5853 5853 5853 5853 5852 5852 5852 5852 5852 5852 5852 5852 5852 5852 5852 5852 5852 5852 5852 5852 5852 5852 5852 5852 5852 5852 5852 5852 5852 5852 5852 5852 5852 5852 5852 5853 5853 5853 5853 5853 5853 5853 5853 5853 5853 5853 5853 5853 5854 5854 5855 5855 5855 5856 5856
5859 5859 5858 5858 5858 5858 5858 5858 5858 5858 5858 5858 5857 5857 5857 5857 5857 5857 5856 5856 5856 5856 5856 5856 5856 5856 5856 5856 5855 5855 5855 5855 5855 5854 5854 5854 5854 5854 5854 5854 5853 5853 5853 5853 5853 5853 5852 5852 5852 5852 5851 5851 5851 5851 5851 5851 5851 5851 5850 5850 5850 5850 5850 5850 5850 5850 5850 5850 5850 5850 5850 5850 5850 5850 5850 5850 5850 5850 5850 5850 5850 5850 5850 5850 5850 5850 5850 5850 5851 5851 5851 5851 5851 5851 5851 5851 5851 5852 5852 5852 5853 5853 5853
5858 5858 5858 5858 5857 5857 5857 5857 5857 5857 5857 5856 5856 5856 5856 5856 5856 5855 5855 5855 5855 5855 5855 5855 5855 5854 5854 5854 5854 5854 5854 5854 5853 5853 5853 5853 5853 5853 5853 5852 5852 5852 5852 5852 5852 5851 5851 5851 5850 5850 5850 5850 5849 5849 5849 5849 5849 5849 5849 5849 5849 5848 5848 5848 5848 5848 5848 5848 5848 5848 5848 5848 5848 5848 5848 5848 5848 5848 5848 5848 5848 5848 5848 5848 5848 5848 5848 5848 5848 5848 5848 5848 5848 5848 5848 5848 5849 5849 5849 5849 5850 5850 5851
5857 5857 5857 5857 5856 5856 5856 5856 5856 5856 5855 5855 5855 5855 5855 5854 5854 5854 5854 5854 5854 5853 5853 5853 5853 5853 5853 5853 5853 5853 5853 5853 5852 5852 5852 5852 5851 5851 5851 5851 5851 5850 5850 5850 5850 5850 5850 5849 5849 5849 5848 5848 5848 5848 5848 5847 5847 5847 5847 5847 5847 5847 5847 5847 5846 5846 5846 5847 5846 5846 5846 5846 5846 5846 5846 5846 5846 5846 5846 5846 5846 5846 5846 5846 5846 5846 5846 5846 5846 5846 5845 5845 5846 5846 5846 5846 5846 5846 5846 5847 5847 5847 5848
5856 5856 5856 5855 5855 5855 5855 5855 5855 5854 5854 5854 5854 5854 5853 5853 5853 5853 5853 5853 5853 5852 5852 5852 5852 5852 5852 5851 5851 5851 5851 5851 5851 5851 5850 5850 5850 5850 5849 5849 5849 5849 5848 5848 5848 5848 5848 5848 5847 5847 5847 5847 5846 5846 5846 5846 5845 5845 5845 5845 5845 5845 5845 5844 5844 5844 5844 5844 5844 5844 5844 5844 5844 5844 5844 5844 5843 5843 5843 5843 5843 5843 5843 5844 5844 5844 5844 5844 5843 5843 5843 5843 5843 5843 5843 5843 5843 5843 5844 5844 5844 5844 5845
5855 5855 5854 5854 5854 5854 5854 5854 5853 5853 5853 5853 5853 5853 5853 5852 5852 5852 5852 5852 5851 5851 5851 5851 5850 5850 5850 5850 5850 5849 5849 5849 5849 5849 5849 5848 5848 5848 5848 5848 5847 5847 5847 5847 5846 5846 5846 5846 5845 5845 5845 5845 5844 5844 5844 5844 5843 5843 5843 5843 5843 5843 5843 5843 5842 5842 5842 5842 5842 5842 5842 5841 5841 5841 5841 5841 5841 5841 5841 5841 5841 5841 5841 5841 5841 5841 5841 5841 5841 5841 5841 5841 5841 5841 5841 5841 5841 5841 5841 5841 5841 5842 5842
5854 5854 5853 5853 5853 5853 5853 5853 5853 5852 5852 5852 5852 5852 5851 5851 5851 5851 5851 5850 5850 5850 5850 5849 5849 5849 5848 5848 5848 5848 5848 5848 5848 5847 5847 5847 5847 5846 5846 5846 5846 5845 5845 5845 5844 5844 5844 5843 5843 5843 5843 5843 5842 5842 5842 5842 5841 5841 5841 5841 5841 5840 5840 5840 5840 5840 5840 5839 5839 5839 5839 5839 5839 5839 5839 5838 5838 5838 5838 5838 5838 5838 5838 5838 5838 5838 5838 5838 5838 5838 5839 5839 5839 5839 5839 5839 5838 5838 5838 5839 5839 5839 5839
5853 5853 5853 5852 5852 5852 5852 5852 5851 5851 5851 5851 5851 5850 5850 5850 5850 5850 5849 5849 5849 5849 5848 5848 5848 5848 5847 5847 5847 5846 5846 5846 5846 5846 5845 5845 5845 5845 5844 5844 5844 5843 5843 5843 5843 5842 5842 5841 5841 5841 5840 5840 5840 5839 5839 5839 5839 5838 5838 5838 5838 5838 5838 5838 5838 5838 5837 5837 5837 5837 5837 5837 5836 5836 5836 5836 5836 5836 5836 5836 5836 5836 5836 5836 5836 5836 5836 5836 5836 5836 5836 5836 5836 5836 5836 5836 5836 5836 5836 5836 5836 5836 5836
5852 5852 5851 5851 5851 5851 5851 5851 5850 5850 5850 5850 5850 5849 5849 5849 5849 5848 5848 5848 5848 5848 5847 5847 5847 5846 5846 5846 5845 5845 5845 5844 5844 5844 5843 5843 5843 5843 5843 5842 5842 5842 5841 5841 5841 5840 5840 5839 5839 5838 5838 5838 5838 5837 5837 5837 5836 5836 5836 5836 5836 5836 5835 5835 5835 5835 5835 5835 5834 5834 5834 5834 5834 5833 5833 5833 5833 5833 5833 5833 5833 5833 5833 5833 5833 5833 5833 5833 5833 5833 5833 5833 5833 5833 5833 5833 5833 5833 5833 5834 5834 5834 5834
5851 5851 5850 5850 5850 5850 5850 5849 5849 5849 5849 5849 5848 5848 5848 5848 5848 5847 5847 5847 5847 5846 5846 5846 5845 5845 5845 5844 5844 5844 5843 5843 5843 5842 5842 5842 5841 5841 5841 5840 5840 5839 5839 5839 5838 5838 5838 5837 5837 5836 5836 5835 5835 5835 5834 5834 5834 5833 5833 5833 5833 5833 5833 5833 5832 5832 5832 5832 5832 5832 5831 5831 5831 5831 5831 5830 5830 5830 5830 5830 5830 5830 5830 5830 5830 5830 5830 5830 5830 5830 5830 5830 5830 5830 5830 5830 5830 5830 5831 5831 5831 5831 5831
5850 5850 5849 5849 5849 5849 5849 5848 5848 5848 5848 5848 5848 5847 5847 5847 5847 5846 5846 5845 5845 5845 5845 5844 5844 5844 5843 5843 5843 5842 5842 5842 5841 5841 5840 5840 5839 5839 5839 5838 5838 5838 5837 5837 5836 5836 5835 5835 5835 5834 5834 5833 5833 5832 5832 5832 5831 5831 5831 5830 5830 5830 5830 5830 5829 5829 5829 5829 5829 5828 5828 5828 5828 5828 5828 5828 5828 5827 5827 5827 5827 5827 5827 5827 5827 5827 5827 5827 5827 5827 5827 5827 5827 5827 5827 5827 5827 5827 5828 5828 5828 5828 5828
5849 5849 5848 5848 5848 5848 5848 5848 5847 5847 5847 5847 5846 5846 5846 5846 5845 5845 5844 5844 5844 5843 5843 5843 5843 5842 5842 5841 5841 5841 5840 5840 5839 5839 5839 5838 5838 5838 5837 5837 5836 5836 5835 5835 5834 5834 5833 5833 5833 5832 5831 5831 5830 5830 5830 5829 5829 5828 5828 5828 5828 5827 5827 5827 5827 5826 5826 5826 5826 5825 5825 5825 5825 5825 5824 5824 5824 5824 5824 5824 5824 5824 5824 5824 5824 5824 5824 5823 5823 5823 5824 5824 5824 5824 5824 5824 5824 5824 5824 5824 5825 5825 5825
5848 5848 5848 5847 5847 5847 5847 5846 5846 5846 5846 5845 5845 5845 5844 5844 5844 5843 5843 5843 5843 5842 5842 5841 5841 5841 5840 5840 5839 5839 5838 5838 5838 5838 5837 5837 5836 5836 5835 5835 5834 5834 5833 5833 5832 5832 5831 5831 5830 5830 5829 5829 5828 5828 5827 5827 5826 5826 5826 5825 5825 5824 5824 5824 5824 5823 5823 5823 5823 5823 5822 5822 5822 5822 5821 5821 5821 5821 5821 5821 5821 5820 5820 5820 5820 5820 5820 5820 5820 5820 5820 5820 5820 5820 5820 5820 5821 5821 5821 5821 5821 5822 5822
5847 5847 5846 5846 5846 5846 5845 5845 5845 5844 5844 5844 5844 5843 5843 5843 5843 5842 5842 5842 5841 5841 5840 5840 5839 5839 5839 5838 5838 5838 5837 5837 5836 5836 5835 5835 5834 5834 5833 5833 5833 5832 5831 5831 5830 5830 5829 5829 5828 5828 5827 5827 5826 5825 5825 5824 5824 5824 5823 5823 5822 5822 5822 5821 5821 5821 5820 5820 5820 5819 5819 5819 5818 5818 5818 5818 5818 5818 5817 5817 5817 5817 5817 5817 5817 5817 5817 5817 5817 5817 5817 5817 5817 5817 5817 5817 5817 5817 5817 5818 5818 5818 5818
5846 5845 5845 5845 5845 5844 5844 5844 5843 5843 5843 5843 5842 5842 5842 5841 5841 5841 5840 5840 5840 5839 5839 5838 5838 5838 5837 5837 5836 5836 5835 5835 5834 5834 5833 5833 5833 5832 5832 5831 5831 5830 5830 5829 5828 5828 5828 5827 5826 5826 5825 5824 5824 5823 5823 5822 5822 5821 5821 5820 5820 5819 5819 5818 5818 5818 5817 5817 5817 5816 5816 5816 5815 5815 5815 5815 5814 5814 5814 5814 5814 5813 5813 5813 5813 5813 5813 5813 5813 5813 5813 5813 5813 5813 5813 5813 5813 5813 5813 5814 5814 5814 5814
5844 5844 5844 5843 5843 5843 5843 5842 5842 5842 5841 5841 5841 5840 5840 5840 5839 5839 5839 5838 5838 5838 5837 5837 5837 5836 5836 5835 5835 5834 5834 5833 5833 5832 5832 5831 5831 5830 5830 5829 5829 5828 5828 5827 5827 5826 5825 5825 5824 5824 5823 5823 5822 5821 5821 5820 5819 5819 5818 5818 5817 5817 5816 5816 5815 5815 5814 5814 5813 5813 5813 5813 5812 5812 5812 5811 5811 5811 5811 5810 5810 5810 5810 5810 5810 5810 5810 5810 5809 5809 5809 5809 5809 5809 5809 5809 5809 5809 5810 5810 5810 5810 5810
5843 5843 5842 5842 5842 5841 5841 5841 5840 5840 5840 5839 5839 5839 5838 5838 5838 5837 5837 5837 5836 5836 5836 5835 5835 5834 5834 5833 5833 5832 5832 5831 5831 5830 5829 5829 5828 5828 5828 5827 5827 5826 5826 5825 5825 5824 5823 5823 5822 5822 5821 5820 5820 5819 5818 5818 5817 5817 5816 5815 5815 5814 5813 5813 5813 5812 5812 5811 5811 5810 5810 5809 5809 5809 5808 5808 5808 5808 5807 5807 5807 5807 5806 5806 5806 5806 5806 5806 5806 5806 5806 5805 5805 5805 5805 5805 5805 5806 5806 5806 5806 5806 5807
5841 5841 5841 5840 5840 5840 5839 5839 5839 5838 5838 5838 5837 5837 5837 5836 5836 5836 5835 5835 5834 5834 5833 5833 5833 5832 5832 5831 5831 5830 5830 5829 5829 5828 5828 5827 5826 5826 5825 5825 5824 5824 5823 5823 5822 5822 5821 5821 5820 5819 5819 5818 5818 5817 5816 5816 5815 5814 5813 5813 5812 5812 5811 5810 5810 5809 5808 5808 5808 5807 5807 5806 5806 5805 5805 5805 5804 5804 5804 5803 5803 5803 5803 5803 5803 5803 5802 5802 5802 5802 5802 5802 5802 5801 5801 5802 5802 5802 5802 5802 5802 5802 5803
5840 5839 5839 5839 5838 5838 5838 5838 5837 5837 5837 5836 5836 5835 5835 5834 5834 5833 5833 5833 5832 5832 5831 5831 5831 5830 5830 5829 5829 5828 5828 5827 5827 5826 5825 5825 5824 5824 5823 5823 5822 5821 5821 5820 5820 5819 5818 5818 5818 5817 5816 5816 5815 5814 5814 5813 5813 5812 5811 5810 5809 5809 5808 5808 5807 5806 5806 5805 5804 5804 5803 5803 5802 5802 5802 5801 5801 5801 5800 5800 5800 5799 5799 5799 5799 5798 5798 5798 5798 5798 5798 5798 5798 5798 5798 5798 5798 5798 5798 5798 5798 5798 5798
5838 5838 5838 5837 5837 5836 5836 5836 5835 5835 5835 5834 5834 5833 5833 5833 5832 5832 5831 5831 5830 5830 5829 5829 5828 5828 5828 5827 5826 5826 5825 5825 5824 5824 5823 5823 5822 5821 5821 5820 5819 5819 5818 5818 5817 5817 5816 5815 5815 5814 5813 5813 5812 5812 5811 5810 5810 5809 5808 5808 5807 5806 5805 5805 5804 5803 5803 5802 5801 5801 5800 5799 5799 5798 5798 5798 5797 5797 5797 5796 5796 5796 5795 5795 5795 5795 5794 5794 5794 5794 5794 5794 5794 5793 5793 5793 5793 5793 5793 5794 5794 5794 5794
5837 5836 5836 5835 5835 5835 5834 5834 5833 5833 5833 5833 5832 5832 5831 5830 5830 5829 5829 5828 5828 5828 5827 5827 5826 5826 5825 5824 5824 5823 5823 5823 5822 5821 5821 5820 5819 5819 5818 5818 5817 5816 5816 5815 5814 5814 5813 5813 5812 5811 5810 5810 5809 5808 5808 5808 5807 5806 5805 5804 5803 5803 5802 5802 5801 5800 5799 5799 5798 5797 5797 5796 5795 5795 5794 5794 5793 5793 5793 5793 5792 5792 5792 5791 5791 5791 5791 5790 5790 5790 5790 5790 5789 5789 5789 5789 5789 5789 5789 5790 5790 5790 5790
5835 5834 5834 5833 5833 5833 5832 5832 5832 5831 5831 5830 5830 5829 5829 5828 5828 5828 5827 5826 5826 5825 5825 5824 5824 5823 5823 5822 5822 5821 5820 5820 5819 5819 5818 5818 5817 5816 5816 5815 5814 5813 5813 5812 5812 5811 5810 5810 5809 5808 5808 5807 5806 5805 5805 5804 5803 5803 5802 5801 5800 5800 5799 5798 5798 5797 5796 5795 5794 5794 5793 5792 5792 5791 5791 5790 5790 5789 5789 5788 5788 5788 5788 5788 5787 5787 5787 5786 5786 5786 5786 5786 5785 5785 5785 5785 5785 5785 5785 5785 5785 5785 5785
5833 5833 5832 5832 5831 5831 5830 5830 5829 5829 5828 5828 5828 5827 5827 5826 5826 5825 5825 5824 5823 5823 5822 5822 5821 5821 5820 5820 5819 5818 5818 5817 5817 5816 5815 5815 5814 5813 5813 5812 5811 5811 5810 5809 5808 5808 5807 5807 5806 5805 5805 5804 5803 5802 5802 5801 5800 5799 5799 5798 5797 5796 5796 5795 5794 5793 5793 5792 5791 5790 5789 5789 5788 5787 5787 5786 5786 5785 5785 5784 5784 5784 5783 5783 5783 5783 5783 5782 5782 5782 5782 5781 5781 5781 5781 5781 5781 5781 5781 5781 5781 5781 5781
5831 5831 5830 5830 5829 5829 5828 5828 5828 5827 5826 5826 5826 5825 5825 5824 5823 5823 5822 5822 5821 5820 5820 5819 5819 5818 5818 5817 5816 5816 5815 5814 5813 5813 5812 5812 5811 5811 5810 5809 5808 5808 5807 5806 5806 5805 5804 5803 5803 5802 5801 5801 5800 5799 5798 5798 5797 5796 5795 5794 5794 5793 5792 5791 5790 5790 5789 5788 5787 5787 5786 5785 5784 5783 5783 5782 5782 5781 5781 5780 5780 5780 5779 5779 5779 5779 5778 5778 5778 5778 5777 5777 5777 5777 5777 5777 5777 5777 5776 5777 5777 5777 5777
5829 5829 5828 5828 5828 5827 5827 5826 5825 5825 5824 5824 5823 5823 5823 5822 5821 5821 5820 5819 5818 5818 5817 5817 5816 5815 5815 5814 5814 5813 5812 5812 5811 5810 5809 5809 5808 5808 5807 5806 5805 5805 5804 5803 5803 5802 5801 5800 5799 5799 5798 5797 5797 5796 5795 5794 5793 5793 5792 5791 5790 5789 5788 5788 5787 5786 5785 5784 5783 5783 5782 5781 5780 5780 5779 5778 5778 5777 5777 5776 5776 5775 5775 5775 5775 5774 5774 5774 5774 5773 5773 5773 5773 5772 5772 5772 5772 5772 5772 5772 5772 5772 5772
5827 5827 5826 5826 5825 5825 5824 5824 5823 5823 5822 5822 5821 5821 5820 5820 5819 5818 5818 5817 5816 5816 5815 5814 5813 5813 5812 5812 5811 5810 5809 5809 5808 5807 5806 5806 5805 5804 5803 5803 5802 5801 5801 5800 5799 5798 5798 5797 5796 5795 5795 5794 5793 5792 5791 5790 5789 5789 5788 5787 5786 5785 5784 5784 5783 5782 5781 5780 5780 5779 5778 5777 5777 5776 5775 5774 5773 5773 5773 5772 5772 5771 5771 5770 5770 5770 5770 5769 5769 5769 5768 5768 5768 5768 5768 5768 5768 5768 5768 5768 5767 5767 5767
5825 5825 5824 5824 5823 5823 5822 5822 5821 5821 5820 5820 5819 5818 5818 5817 5817 5816 5816 5815 5814 5813 5813 5812 5811 5810 5809 5809 5808 5807 5807 5806 5805 5804 5803 5803 5802 5801 5800 5800 5799 5798 5797 5797 5796 5795 5794 5793 5793 5792 5791 5790 5789 5788 5788 5787 5786 5785 5784 5783 5782 5781 5780 5780 5779 5778 5777 5776 5776 5775 5774 5773 5773 5772 5771 5770 5769 5769 5768 5768 5767 5767 5766 5766 5766 5765 5765 5765 5765 5764 5764 5764 5763 5763 5763 5763 5763 5763 5763 5763 5763 5763 5763
5823 5823 5822 5821 5821 5820 5820 5819 5819 5818 5818 5817 5817 5816 5815 5815 5814 5814 5813 5813 5812 5811 5810 5809 5808 5808 5807 5806 5805 5804 5804 5803 5802 5801 5800 5800 5799 5798 5797 5796 5796 5795 5794 5793 5792 5792 5791 5790 5789 5788 5788 5787 5786 5785 5784 5783 5782 5781 5780 5779 5778 5777 5776 5775 5774 5774 5773 5772 5771 5770 5770 5769 5768 5768 5767 5766 5765 5764 5764 5763 5763 5762 5762 5762 5761 5761 5761 5760 5760 5760 5759 5759 5759 5758 5758 5758 5758 5758 5758 5758 5758 5758 5758
5821 5820 5820 5819 5818 5818 5818 5817 5817 5816 5815 5815 5814 5813 5813 5813 5812 5811 5810 5810 5809 5808 5808 5807 5806 5805 5804 5803 5802 5802 5801 5800 5799 5798 5797 5797 5796 5795 5794 5793 5792 5791 5791 5790 5789 5788 5787 5786 5785 5784 5784 5783 5782 5781 5780 5779 5778 5777 5776 5775 5774 5773 5772 5771 5770 5769 5768 5768 5767 5766 5765 5764 5764 5763 5762 5762 5761 5760 5759 5759 5758 5758 5757 5757 5757 5756 5756 5756 5755 5755 5755 5754 5754 5753 5753 5753 5753 5753 5753 5753 5753 5753 5752
5818 5818 5817 5817 5816 5816 5815 5814 5814 5813 5813 5812 5812 5811 5810 5810 5809 5808 5808 5807 5806 5806 5805 5804 5803 5802 5801 5800 5799 5798 5798 5797 5796 5795 5794 5793 5792 5791 5790 5790 5789 5788 5787 5786 5785 5784 5783 5783 5782 5781 5780 5779 5778 5777 5776 5775 5774 5773 5772 5771 5770 5768 5768 5767 5766 5765 5764 5763 5762 5761 5761 5760 5759 5758 5758 5757 5756 5755 5755 5754 5753 5753 5753 5752 5752 5752 5751 5751 5751 5750 5750 5749 5749 5749 5748 5748 5748 5748 5748 5748 5747 5747 5747
5816 5815 5815 5814 5813 5813 5812 5812 5811 5811 5810 5810 5809 5808 5808 5807 5806 5805 5804 5804 5803 5802 5802 5801 5800 5799 5798 5798 5797 5796 5795 5793 5793 5792 5791 5790 5789 5788 5787 5786 5785 5784 5783 5783 5782 5781 5780 5779 5778 5777 5776 5775 5774 5773 5772 5771 5770 5769 5768 5767 5766 5764 5763 5762 5761 5760 5759 5758 5758 5757 5756 5755 5754 5754 5753 5752 5752 5751 5750 5749 5749 5748 5748 5748 5747 5747 5746 5746 5746 5745 5745 5744 5744 5744 5743 5743 5743 5743 5742 5742 5742 5742 5742
5813 5813 5812 5812 5811 5810 5810 5809 5808 5808 5808 5807 5806 5805 5805 5804 5803 5802 5801 5800 5800 5799 5798 5797 5797 5796 5795 5794 5793 5792 5791 5790 5789 5788 5787 5786 5785 5785 5784 5783 5782 5781 5780 5779 5778 5777 5776 5775 5774 5773 5772 5771 5770 5769 5768 5767 5766 5765 5764 5763 5762 5760 5759 5758 5757 5756 5755 5754 5753 5752 5751 5750 5750 5749 5748 5748 5747 5746 5745 5744 5744 5743 5743 5743 5742 5742 5741 5741 5741 5740 5740 5739 5739 5739 5738 5738 5738 5737 5737 5737 5737 5737 5737
5810 5810 5809 5809 5808 5808 5807 5806 5806 5805 5805 5804 5803 5802 5802 5801 5800 5799 5798 5797 5796 5795 5794 5793 5793 5792 5791 5790 5790 5789 5788 5787 5786 5785 5783 5783 5782 5781 5780 5779 5778 5777 5776 5775 5774 5773 5772 5771 5770 5769 5768 5767 5766 5765 5764 5763 5762 5761 5760 5758 5757 5756 5755 5753 5752 5751 5750 5749 5748 5747 5746 5745 5745 5744 5743 5743 5742 5741 5740 5740 5739 5738 5738 5738 5737 5737 5736 5736 5736 5735 5735 5734 5734 5733 5733 5733 5732 5732 5732 5731 5731 5731 5731
5808 5807 5807 5806 5806 5805 5804 5803 5803 5802 5802 5801 5800 5799 5798 5798 5797 5796 5795 5793 5793 5792 5791 5790 5789 5788 5787 5787 5786 5785 5784 5783 5782 5781 5780 5779 5778 5777 5776 5775 5774 5773 5772 5770 5769 5768 5767 5766 5765 5764 5763 5763 5762 5760 5759 5758 5757 5756 5755 5754 5753 5752 5750 5749 5748 5747 5745 5744 5743 5742 5741 5740 5740 5739 5738 5738 5737 5736 5735 5734 5734 5733 5733 5733 5732 5732 5731 5731 5730 5730 5730 5729 5729 5728 5728 5728 5727 5727 5726 5726 5726 5726 5726
5805 5805 5804 5803 5803 5802 5802 5801 5800 5799 5798 5798 5797 5796 5795 5794 5793 5792 5791 5790 5789 5788 5787 5786 5785 5784 5783 5783 5782 5781 5780 5779 5778 5777 5776 5775 5774 5773 5772 5771 5770 5769 5768 5766 5765 5764 5763 5762 5761 5760 5759 5758 5757 5756 5754 5753 5752 5751 5750 5749 5748 5747 5745 5744 5743 5742 5740 5739 5738 5737 5736 5735 5734 5734 5733 5733 5732 5731 5730 5729 5729 5728 5728 5727 5727 5727 5726 5726 5725 5725 5724 5724 5723 5723 5723 5722 5722 5721 5721 5720 5720 5720 5720
5803 5802 5801 5801 5800 5799 5798 5798 5797 5796 5796 5795 5793 5793 5792 5791 5789 5788 5788 5786 5785 5784 5783 5782 5781 5780 5779 5779 5778 5777 5776 5775 5774 5773 5772 5771 5770 5769 5768 5767 5766 5764 5763 5762 5761 5760 5758 5757 5756 5755 5754 5753 5752 5751 5750 5748 5747 5746 5745 5744 5743 5742 5740 5739 5738 5737 5735 5734 5733 5732 5731 5730 5729 5728 5728 5727 5727 5726 5725 5724 5723 5723 5723 5722 5722 5721 5721 5721 5720 5720 5719 5719 5718 5718 5717 5717 5716 5716 5715 5715 5714 5714 5714
5800 5799 5798 5798 5797 5796 5796 5795 5794 5793 5793 5791 5790 5789 5788 5787 5786 5785 5783 5783 5781 5780 5779 5778 5777 5776 5776 5775 5774 5773 5772 5771 5770 5769 5768 5767 5766 5764 5763 5763 5761 5760 5759 5758 5757 5755 5754 5753 5752 5750 5749 5748 5747 5746 5745 5743 5743 5741 5740 5739 5738 5737 5735 5734 5733 5732 5730 5729 5728 5727 5725 5724 5724 5723 5723 5722 5721 5721 5720 5719 5718 5718 5717 5717 5716 5716 5716 5715 5715 5715 5714 5714 5713 5713 5712 5711 5711 5710 5709 5709 5709 5708 5708
5797 5796 5796 5795 5794 5793 5793 5792 5791 5790 5789 5788 5787 5786 5784 5783 5782 5781 5780 5779 5778 5777 5775 5774 5773 5772 5772 5771 5770 5769 5768 5767 5766 5765 5763 5762 5761 5760 5759 5758 5757 5756 5755 5753 5752 5751 5750 5748 5747 5746 5745 5743 5743 5741 5740 5739 5738 5736 5735 5734 5733 5732 5730 5729 5728 5726 5725 5724 5723 5722 5720 5719 5718 5718 5717 5716 5716 5715 5714 5714 5713 5713 5712 5712 5711 5711 5710 5710 5710 5709 5709 5708 5708 5707 5706 5706 5705 5704 5703 5703 5703 5703 5703
5794 5793 5793 5792 5791 5790 5789 5788 5788 5787 5786 5785 5783 5782 5781 5779 5778 5777 5776 5775 5774 5773 5772 5771 5769 5768 5767 5767 5766 5765 5764 5763 5762 5761 5759 5758 5757 5756 5754 5753 5752 5751 5750 5749 5748 5746 5745 5744 5742 5741 5740 5739 5738 5736 5735 5734 5733 5731 5730 5729 5728 5727 5725 5724 5723 5721 5720 5719 5718 5717 5715 5714 5713 5712 5712 5711 5710 5709 5709 5708 5708 5707 5706 5706 5706 5705 5705 5704 5704 5704 5703 5703 5702 5702 5701 5700 5699 5699 5698 5698 5697 5697 5697
5791 5790 5789 5788 5788 5787 5786 5785 5784 5783 5782 5781 5780 5778 5777 5776 5774 5773 5772 5771 5770 5769 5768 5767 5766 5764 5763 5762 5761 5760 5760 5758 5758 5756 5755 5754 5753 5751 5750 5749 5748 5746 5745 5744 5743 5742 5740 5739 5738 5736 5735 5734 5733 5732 5730 5729 5728 5726 5725 5724 5723 5722 5720 5719 5717 5716 5715 5713 5713 5711 5710 5709 5708 5707 5706 5705 5704 5703 5703 5702 5702 5701 5701 5700 5700 5699 5699 5698 5698 5698 5698 5697 5697 5696 5695 5694 5694 5693 5692 5692 5691 5691 5691
5787 5787 5786 5785 5784 5783 5782 5781 5780 5779 5778 5777 5776 5774 5773 5772 5770 5769 5768 5767 5766 5765 5764 5763 5762 5761 5759 5758 5756 5756 5755 5754 5753 5752 5751 5749 5748 5747 5746 5744 5743 5742 5740 5739 5738 5737 5735 5734 5733 5732 5730 5729 5728 5727 5726 5724 5723 5722 5720 5719 5718 5717 5715 5714 5712 5711 5710 5708 5707 5706 5705 5704 5703 5702 5701 5700 5699 5698 5697 5696 5696 5695 5695 5694 5694 5693 5693 5693 5692 5692 5691 5691 5691 5690 5689 5688 5688 5687 5686 5686 5685 5685 5685
5783 5783 5782 5781 5780 5779 5778 5778 5776 5775 5774 5773 5772 5771 5769 5768 5767 5765 5764 5763 5762 5761 5760 5759 5758 5757 5755 5753 5752 5751 5750 5749 5748 5747 5746 5745 5744 5743 5741 5740 5738 5737 5736 5734 5733 5732 5730 5729 5728 5727 5726 5724 5723 5722 5721 5719 5718 5717 5715 5714 5713 5712 5710 5708 5707 5706 5704 5703 5702 5701 5699 5698 5697 5696 5695 5694 5693 5692 5691 5691 5690 5689 5689 5688 5688 5687 5687 5686 5686 5686 5685 5685 5684 5684 5683 5682 5682 5681 5680 5679 5679 5679 5679
5780 5779 5778 5778 5777 5776 5775 5773 5773 5771 5770 5769 5768 5767 5765 5764 5763 5761 5760 5759 5758 5757 5756 5755 5754 5753 5751 5749 5748 5746 5745 5744 5743 5742 5741 5740 5739 5738 5737 5735 5734 5733 5731 5730 5728 5727 5726 5724 5723 5722 5721 5720 5718 5717 5716 5715 5713 5712 5711 5709 5708 5707 5705 5703 5702 5701 5699 5698 5696 5695 5694 5693 5692 5691 5690 5689 5688 5687 5686 5685 5684 5684 5683 5683 5682 5682 5681 5680 5680 5680 5679 5679 5678 5678 5677 5676 5675 5674 5674 5673 5673 5672 5672
5776 5775 5774 5774 5773 5772 5771 5770 5768 5767 5766 5765 5764 5763 5761 5760 5758 5757 5756 5755 5754 5753 5752 5751 5750 5748 5747 5745 5743 5742 5740 5739 5738 5737 5736 5735 5734 5733 5732 5730 5729 5728 5727 5725 5724 5722 5721 5720 5719 5718 5717 5715 5714 5713 5711 5710 5708 5707 5706 5704 5703 5702 5700 5698 5697 5695 5694 5692 5691 5689 5688 5687 5686 5685 5684 5683 5683 5682 5681 5680 5679 5678 5678 5677 5676 5676 5675 5674 5674 5673 5673 5673 5672 5672 5671 5670 5669 5668 5668 5667 5667 5666 5666
5773 5772 5771 5770 5769 5768 5767 5766 5764 5763 5762 5761 5760 5758 5757 5756 5754 5753 5752 5751 5750 5748 5747 5746 5745 5744 5743 5741 5739 5738 5736 5734 5733 5732 5731 5731 5729 5728 5727 5726 5725 5723 5722 5721 5719 5718 5716 5715 5715 5713 5712 5711 5709 5708 5707 5705 5703 5702 5701 5700 5698 5697 5695 5693 5692 5690 5688 5687 5685 5684 5683 5682 5681 5680 5679 5678 5677 5676 5675 5674 5674 5673 5672 5672 5671 5670 5669 5668 5668 5668 5667 5667 5666 5665 5664 5663 5663 5662 5661 5661 5660 5660 5659
5769 5768 5767 5766 5765 5764 5763 5761 5760 5759 5758 5757 5756 5754 5753 5752 5750 5749 5748 5747 5745 5744 5743 5741 5741 5740 5738 5737 5735 5734 5732 5730 5729 5728 5726 5726 5725 5723 5721 5721 5720 5719 5718 5716 5714 5713 5712 5711 5710 5709 5707 5706 5705 5703 5702 5700 5699 5697 5696 5695 5693 5692 5690 5688 5687 5685 5683 5682 5680 5679 5678 5677 5676 5675 5674 5673 5672 5671 5670 5669 5668 5668 5667 5666 5665 5664 5664 5663 5662 5662 5661 5661 5660 5659 5658 5657 5656 5656 5655 5654 5653 5653 5653
5766 5764 5763 5762 5761 5760 5758 5757 5756 5755 5754 5753 5752 5750 5749 5748 5746 5745 5744 5743 5741 5740 5739 5737 5736 5735 5734 5733 5731 5729 5728 5726 5725 5724 5722 5720 5720 5719 5717 5715 5714 5714 5713 5711 5710 5709 5708 5706 5705 5704 5703 5702 5701 5699 5697 5696 5694 5693 5691 5690 5688 5687 5685 5683 5682 5680 5679 5677 5676 5674 5673 5672 5671 5670 5668 5668 5667 5665 5664 5664 5663 5662 5661 5660 5660 5659 5658 5657 5657 5656 5655 5655 5654 5653 5652 5651 5650 5649 5648 5648 5647 5647 5646
5762 5761 5760 5758 5757 5756 5754 5753 5752 5751 5750 5749 5748 5746 5745 5744 5742 5741 5740 5738 5737 5736 5735 5733 5732 5730 5729 5728 5727 5725 5724 5723 5721 5720 5718 5716 5714 5714 5713 5711 5709 5708 5708 5706 5705 5704 5705 5702 5701 5700 5699 5698 5696 5695 5693 5692 5690 5689 5687 5686 5684 5682 5680 5679 5677 5676 5674 5673 5671 5670 5668 5667 5666 5665 5664 5663 5662 5660 5659 5658 5658 5657 5656 5655 5654 5653 5653 5652 5651 5650 5650 5649 5648 5647 5646 5645 5644 5643 5643 5642 5641 5640 5639
5758 5757 5756 5754 5753 5752 5750 5749 5748 5747 5746 5745 5743 5742 5741 5740 5738 5737 5735 5734 5733 5732 5731 5729 5728 5726 5724 5724 5723 5721 5719 5718 5717 5715 5714 5712 5710 5708 5707 5707 5705 5703 5703 5702 5699 5698 5699 5698 5696 5695 5696 5694 5692 5691 5690 5688 5687 5685 5683 5682 5680 5678 5676 5674 5673 5671 5670 5668 5667 5665 5664 5663 5661 5660 5659 5658 5657 5656 5654 5653 5652 5651 5650 5649 5648 5648 5647 5646 5646 5645 5644 5643 5643 5642 5640 5639 5638 5637 5636 5636 5635 5634 5633
5755 5753 5752 5750 5749 5748 5746 5745 5744 5743 5742 5740 5739 5738 5737 5736 5734 5733 5731 5730 5729 5728 5726 5725 5724 5722 5720 5719 5718 5717 5714 5714 5713 5711 5709 5708 5706 5704 5701 5701 5700 5699 5697 5697 5695 5693 5693 5692 5691 5689 5690 5690 5688 5686 5686 5685 5683 5681 5679 5678 5676 5673 5672 5669 5668 5667 5665 5663 5662 5660 5659 5658 5656 5655 5654 5653 5652 5651 5649 5648 5647 5646 5645 5644 5643 5642 5641 5640 5640 5639 5638 5638 5637 5635 5634 5633 5632 5631 5630 5629 5628 5628 5627
5751 5749 5748 5747 5745 5743 5742 5741 5739 5738 5737 5736 5735 5734 5733 5732 5730 5729 5727 5726 5725 5723 5722 5721 5719 5718 5716 5714 5713 5712 5710 5709 5708 5707 5705 5703 5702 5700 5697 5695 5694 5693 5692 5691 5690 5689 5687 5686 5685 5683 5683 5685 5683 5682 5681 5681 5679 5677 5675 5673 5671 5669 5667 5665 5663 5662 5660 5658 5657 5655 5654 5653 5651 5650 5649 5648 5647 5646 5644 5643 5642 5641 5639 5638 5638 5637 5636 5635 5634 5633 5632 5631 5630 5629 5628 5627 5626 5625 5624 5623 5622 5621 5620
5747 5745 5744 5743 5741 5739 5738 5737 5735 5734 5733 5732 5731 5729 5728 5727 5726 5724 5723 5722 5720 5719 5718 5716 5715 5714 5713 5710 5708 5707 5706 5704 5703 5703 5702 5699 5698 5696 5694 5691 5689 5688 5686 5684 5684 5683 5682 5681 5679 5677 5677 5679 5679 5677 5675 5675 5674 5672 5670 5668 5667 5664 5662 5661 5659 5658 5656 5654 5652 5650 5649 5648 5646 5645 5644 5643 5642 5640 5639 5638 5637 5635 5634 5633 5632 5631 5630 5629 5628 5627 5626 5625 5624 5623 5622 5621 5620 5619 5618 5617 5615 5614 5613
5743 5741 5740 5738 5737 5735 5734 5733 5731 5730 5728 5728 5726 5725 5724 5723 5721 5720 5718 5717 5716 5714 5713 5712 5710 5709 5708 5706 5704 5702 5701 5700 5699 5698 5697 5695 5693 5691 5690 5688 5685 5683 5681 5679 5678 5677 5675 5675 5674 5672 5670 5671 5673 5673 5670 5669 5668 5667 5665 5663 5661 5659 5658 5656 5654 5653 5652 5649 5648 5646 5644 5643 5641 5640 5639 5638 5636 5635 5633 5632 5631 5629 5628 5627 5626 5625 5624 5623 5622 5621 5620 5619 5618 5617 5616 5615 5614 5613 5612 5610 5609 5608 5607
5738 5737 5736 5734 5733 5732 5730 5729 5727 5726 5724 5723 5722 5721 5719 5718 5717 5715 5714 5712 5711 5709 5708 5707 5706 5704 5703 5701 5700 5698 5696 5695 5694 5693 5692 5691 5689 5687 5685 5683 5680 5678 5676 5674 5673 5671 5669 5668 5667 5667 5665 5663 5664 5665 5666 5664 5662 5661 5660 5658 5656 5653 5652 5650 5649 5648 5646 5644 5643 5641 5639 5638 5636 5635 5633 5632 5631 5629 5628 5626 5625 5623 5623 5622 5620 5619 5618 5617 5616 5615 5614 5613 5612 5611 5610 5609 5608 5607 5606 5604 5603 5602 5601
5734 5733 5732 5730 5729 5728 5726 5725 5723 5722 5720 5719 5718 5716 5715 5713 5712 5711 5709 5708 5706 5705 5703 5702 5701 5700 5698 5696 5695 5694 5692 5690 5689 5688 5687 5685 5684 5683 5681 5678 5675 5673 5671 5669 5667 5666 5664 5662 5660 5659 5659 5658 5657 5657 5657 5658 5657 5654 5653 5651 5649 5647 5645 5644 5643 5642 5640 5639 5637 5636 5634 5632 5631 5629 5628 5627 5625 5623 5622 5621 5619 5618 5617 5616 5615 5614 5613 5612 5611 5609 5608 5607 5606 5605 5603 5603 5601 5600 5599 5598 5597 5596 5595
5730 5729 5728 5726 5725 5723 5722 5720 5719 5718 5716 5714 5713 5712 5711 5709 5708 5706 5704 5703 5701 5700 5698 5697 5696 5695 5693 5692 5690 5689 5687 5686 5684 5683 5682 5680 5679 5678 5677 5673 5671 5669 5667 5664 5662 5660 5658 5656 5655 5653 5653 5652 5652 5651 5650 5650 5649 5648 5646 5645 5643 5641 5639 5638 5638 5636 5635 5633 5632 5630 5629 5627 5626 5624 5623 5621 5620 5618 5617 5615 5614 5613 5612 5611 5610 5609 5608 5606 5605 5604 5603 5601 5600 5599 5598 5596 5595 5594 5593 5592 5591 5590 5588
5726 5725 5723 5722 5721 5719 5718 5716 5714 5713 5711 5710 5708 5707 5706 5705 5703 5702 5700 5698 5697 5695 5694 5693 5691 5690 5688 5687 5685 5684 5683 5681 5679 5678 5677 5675 5673 5672 5671 5669 5667 5664 5662 5659 5657 5655 5653 5651 5649 5648 5647 5646 5645 5645 5645 5644 5643 5641 5640 5638 5637 5635 5633 5633 5632 5631 5629 5628 5627 5625 5624 5623 5621 5620 5618 5616 5615 5613 5612 5611 5609 5608 5607 5606 5605 5604 5603 5601 5600 5598 5597 5596 5594 5593 5592 5590 5589 5588 5587 5586 5585 5583 5582